owner,sensor,date,latitude,longitude,vertical_datum,mass_concentration_of_oxygen_in_sea_water,qcFlag 
NERRS,ioos:station:NOAA.NERRS:rkblhwq:1,2017-03-01T00:45:00Z,26.0257,-81.7332,0.89,6.3,1111122 
NERRS,ioos:station:NOAA.NERRS:rkblhwq:1,2017-03-01T01:45:00Z,26.0257,-81.7332,0.77,6.3,1111122 
NERRS,ioos:station:NOAA.NERRS:rkblhwq:1,2017-03-01T02:45:00Z,26.0257,-81.7332,0.72,5.7,1111122 
NERRS,ioos:station:NOAA.NERRS:rkblhwq:1,2017-03-01T03:45:00Z,26.0257,-81.7332,0.83,5.8,1111122 
NERRS,ioos:station:NOAA.NERRS:rkblhwq:1,2017-03-01T04:45:00Z,26.0257,-81.7332,0.99,5.9,1111122 
NERRS,ioos:station:NOAA.NERRS:rkblhwq:1,2017-03-01T05:45:00Z,26.0257,-81.7332,1.17,5.7,1111122 
NERRS,ioos:station:NOAA.NERRS:rkblhwq:1,2017-03-01T06:45:00Z,26.0257,-81.7332,1.33,5.9,1111122 
NERRS,ioos:station:NOAA.NERRS:rkblhwq:1,2017-03-01T07:45:00Z,26.0257,-81.7332,1.46,5.5,1111122 
NERRS,ioos:station:NOAA.NERRS:rkblhwq:1,2017-03-01T08:45:00Z,26.0257,-81.7332,1.47,5.5,1111122 
NERRS,ioos:station:NOAA.NERRS:rkblhwq:1,2017-03-01T09:45:00Z,26.0257,-81.7332,1.35,5.7,1111122 
NERRS,ioos:station:NOAA.NERRS:rkblhwq:1,2017-03-01T10:45:00Z,26.0257,-81.7332,1.22,5.2,1111122 
NERRS,ioos:station:NOAA.NERRS:rkblhwq:1,2017-03-01T11:45:00Z,26.0257,-81.7332,1.07,5.1,1111122 
NERRS,ioos:station:NOAA.NERRS:rkblhwq:1,2017-03-01T12:45:00Z,26.0257,-81.7332,0.93,4.8,1111122 
NERRS,ioos:station:NOAA.NERRS:rkblhwq:1,2017-03-01T13:45:00Z,26.0257,-81.7332,0.8,5.1,1111122 
NERRS,ioos:station:NOAA.NERRS:rkblhwq:1,2017-03-01T14:45:00Z,26.0257,-81.7332,0.71,5.2,1111122 
NERRS,ioos:station:NOAA.NERRS:rkblhwq:1,2017-03-01T15:45:00Z,26.0257,-81.7332,0.78,5.7,1111122 
NERRS,ioos:station:NOAA.NERRS:rkblhwq:1,2017-03-01T16:45:00Z,26.0257,-81.7332,0.91,6.1,1111122 
NERRS,ioos:station:NOAA.NERRS:rkblhwq:1,2017-03-01T17:45:00Z,26.0257,-81.7332,1.08,6.3,1111122 
NERRS,ioos:station:NOAA.NERRS:rkblhwq:1,2017-03-01T18:45:00Z,26.0257,-81.7332,1.25,6.4,1111122 
NERRS,ioos:station:NOAA.NERRS:rkblhwq:1,2017-03-01T19:45:00Z,26.0257,-81.7332,1.38,6.3,1111122 
NERRS,ioos:station:NOAA.NERRS:rkblhwq:1,2017-03-01T20:45:00Z,26.0257,-81.7332,1.45,6.6,1111122 
NERRS,ioos:station:NOAA.NERRS:rkblhwq:1,2017-03-01T21:45:00Z,26.0257,-81.7332,1.37,6.8,1111122 
NERRS,ioos:station:NOAA.NERRS:rkblhwq:1,2017-03-01T23:45:00Z,26.0257,-81.7332,1.08,6.5,1111122 
NERRS,ioos:station:NOAA.NERRS:rkblhwq:1,2017-03-02T00:45:00Z,26.0257,-81.7332,0.94,6.5,1111122 
NERRS,ioos:station:NOAA.NERRS:rkblhwq:1,2017-03-02T01:45:00Z,26.0257,-81.7332,0.8,6.1,1111122 
NERRS,ioos:station:NOAA.NERRS:rkblhwq:1,2017-03-02T02:45:00Z,26.0257,-81.7332,0.69,5.9,1111122 
NERRS,ioos:station:NOAA.NERRS:rkblhwq:1,2017-03-02T03:45:00Z,26.0257,-81.7332,0.66,5.7,1111122 
NERRS,ioos:station:NOAA.NERRS:rkblhwq:1,2017-03-02T04:45:00Z,26.0257,-81.7332,0.79,5.6,1111122 
NERRS,ioos:station:NOAA.NERRS:rkblhwq:1,2017-03-02T05:45:00Z,26.0257,-81.7332,0.96,5.7,1111122 
NERRS,ioos:station:NOAA.NERRS:rkblhwq:1,2017-03-02T06:45:00Z,26.0257,-81.7332,1.14,5.5,1111122 
NERRS,ioos:station:NOAA.NERRS:rkblhwq:1,2017-03-02T07:45:00Z,26.0257,-81.7332,1.29,5.5,1111122 
NERRS,ioos:station:NOAA.NERRS:rkblhwq:1,2017-03-02T08:45:00Z,26.0257,-81.7332,1.38,5.3,1111122 
NERRS,ioos:station:NOAA.NERRS:rkblhwq:1,2017-03-02T09:45:00Z,26.0257,-81.7332,1.39,5.1,1111122 
NERRS,ioos:station:NOAA.NERRS:rkblhwq:1,2017-03-02T10:45:00Z,26.0257,-81.7332,1.29,5.2,1111122 
NERRS,ioos:station:NOAA.NERRS:rkblhwq:1,2017-03-02T11:45:00Z,26.0257,-81.7332,1.16,5.1,1111122 
NERRS,ioos:station:NOAA.NERRS:rkblhwq:1,2017-03-02T12:45:00Z,26.0257,-81.7332,1.02,4.7,1111122 
NERRS,ioos:station:NOAA.NERRS:rkblhwq:1,2017-03-02T13:45:00Z,26.0257,-81.7332,0.9,4.6,1111122 
NERRS,ioos:station:NOAA.NERRS:rkblhwq:1,2017-03-02T14:45:00Z,26.0257,-81.7332,0.8,4.6,1111122 
NERRS,ioos:station:NOAA.NERRS:rkblhwq:1,2017-03-02T15:45:00Z,26.0257,-81.7332,0.79,5.2,1111122 
NERRS,ioos:station:NOAA.NERRS:rkblhwq:1,2017-03-02T16:45:00Z,26.0257,-81.7332,0.91,5.6,1111122 
NERRS,ioos:station:NOAA.NERRS:rkblhwq:1,2017-03-02T17:45:00Z,26.0257,-81.7332,1.06,5.9,1111122 
NERRS,ioos:station:NOAA.NERRS:rkblhwq:1,2017-03-02T18:45:00Z,26.0257,-81.7332,1.22,6.3,1111122 
NERRS,ioos:station:NOAA.NERRS:rkblhwq:1,2017-03-02T19:45:00Z,26.0257,-81.7332,1.36,6.2,1111122 
NERRS,ioos:station:NOAA.NERRS:rkblhwq:1,2017-03-02T20:45:00Z,26.0257,-81.7332,1.46,6.1,1111122 
NERRS,ioos:station:NOAA.NERRS:rkblhwq:1,2017-03-02T21:45:00Z,26.0257,-81.7332,1.46,6.1,1111122 
NERRS,ioos:station:NOAA.NERRS:rkblhwq:1,2017-03-02T22:45:00Z,26.0257,-81.7332,1.35,6.3,1111122 
NERRS,ioos:station:NOAA.NERRS:rkblhwq:1,2017-03-02T23:45:00Z,26.0257,-81.7332,1.22,6.2,1111122 
NERRS,ioos:station:NOAA.NERRS:rkblhwq:1,2017-03-03T00:45:00Z,26.0257,-81.7332,1.08,6.0,1111122 
NERRS,ioos:station:NOAA.NERRS:rkblhwq:1,2017-03-03T01:45:00Z,26.0257,-81.7332,0.93,5.8,1111122 
NERRS,ioos:station:NOAA.NERRS:rkblhwq:1,2017-03-03T02:45:00Z,26.0257,-81.7332,0.79,5.5,1111122 
NERRS,ioos:station:NOAA.NERRS:rkblhwq:1,2017-03-03T03:45:00Z,26.0257,-81.7332,0.68,5.2,1111122 
NERRS,ioos:station:NOAA.NERRS:rkblhwq:1,2017-03-03T04:45:00Z,26.0257,-81.7332,0.63,4.5,1111122 
NERRS,ioos:station:NOAA.NERRS:rkblhwq:1,2017-03-03T05:45:00Z,26.0257,-81.7332,0.73,5.2,1111122 
NERRS,ioos:station:NOAA.NERRS:rkblhwq:1,2017-03-03T06:45:00Z,26.0257,-81.7332,0.85,5.1,1111122 
NERRS,ioos:station:NOAA.NERRS:rkblhwq:1,2017-03-03T07:45:00Z,26.0257,-81.7332,1.01,5.2,1111122 
NERRS,ioos:station:NOAA.NERRS:rkblhwq:1,2017-03-03T08:45:00Z,26.0257,-81.7332,1.14,5.1,1111122 
NERRS,ioos:station:NOAA.NERRS:rkblhwq:1,2017-03-03T09:45:00Z,26.0257,-81.7332,1.21,4.7,1111122 
NERRS,ioos:station:NOAA.NERRS:rkblhwq:1,2017-03-03T10:45:00Z,26.0257,-81.7332,1.17,5.2,1111122 
NERRS,ioos:station:NOAA.NERRS:rkblhwq:1,2017-03-03T11:45:00Z,26.0257,-81.7332,1.08,4.8,1111122 
NERRS,ioos:station:NOAA.NERRS:rkblhwq:1,2017-03-03T12:45:00Z,26.0257,-81.7332,0.98,4.7,1111122 
NERRS,ioos:station:NOAA.NERRS:rkblhwq:1,2017-03-03T13:45:00Z,26.0257,-81.7332,0.88,4.8,1111122 
NERRS,ioos:station:NOAA.NERRS:rkblhwq:1,2017-03-03T14:45:00Z,26.0257,-81.7332,0.78,5.3,1111122 
NERRS,ioos:station:NOAA.NERRS:rkblhwq:1,2017-03-03T15:45:00Z,26.0257,-81.7332,0.69,5.5,1111122 
NERRS,ioos:station:NOAA.NERRS:rkblhwq:1,2017-03-03T16:45:00Z,26.0257,-81.7332,0.68,5.6,1111122 
NERRS,ioos:station:NOAA.NERRS:rkblhwq:1,2017-03-03T17:45:00Z,26.0257,-81.7332,0.77,6.4,1111122 
NERRS,ioos:station:NOAA.NERRS:rkblhwq:1,2017-03-03T18:45:00Z,26.0257,-81.7332,0.89,6.7,1111122 
NERRS,ioos:station:NOAA.NERRS:rkblhwq:1,2017-03-03T19:45:00Z,26.0257,-81.7332,1.03,6.6,1111122 
NERRS,ioos:station:NOAA.NERRS:rkblhwq:1,2017-03-03T20:45:00Z,26.0257,-81.7332,1.17,6.6,1111122 
NERRS,ioos:station:NOAA.NERRS:rkblhwq:1,2017-03-03T21:45:00Z,26.0257,-81.7332,1.26,6.1,1111122 
NERRS,ioos:station:NOAA.NERRS:rkblhwq:1,2017-03-03T23:45:00Z,26.0257,-81.7332,1.16,6.4,1111122 
NERRS,ioos:station:NOAA.NERRS:rkblhwq:1,2017-03-04T00:45:00Z,26.0257,-81.7332,1.04,6.2,1111122 
NERRS,ioos:station:NOAA.NERRS:rkblhwq:1,2017-03-04T01:45:00Z,26.0257,-81.7332,0.92,6.0,1111122 
NERRS,ioos:station:NOAA.NERRS:rkblhwq:1,2017-03-04T02:45:00Z,26.0257,-81.7332,0.79,6.0,1111122 
NERRS,ioos:station:NOAA.NERRS:rkblhwq:1,2017-03-04T03:45:00Z,26.0257,-81.7332,0.66,5.7,1111122 
NERRS,ioos:station:NOAA.NERRS:rkblhwq:1,2017-03-04T04:45:00Z,26.0257,-81.7332,0.56,5.7,1111122 
NERRS,ioos:station:NOAA.NERRS:rkblhwq:1,2017-03-04T05:45:00Z,26.0257,-81.7332,0.48,5.6,1111122 
NERRS,ioos:station:NOAA.NERRS:rkblhwq:1,2017-03-04T06:45:00Z,26.0257,-81.7332,0.49,5.5,1111122 
NERRS,ioos:station:NOAA.NERRS:rkblhwq:1,2017-03-04T07:45:00Z,26.0257,-81.7332,0.59,5.5,1111122 
NERRS,ioos:station:NOAA.NERRS:rkblhwq:1,2017-03-04T08:45:00Z,26.0257,-81.7332,0.7,5.6,1111122 
NERRS,ioos:station:NOAA.NERRS:rkblhwq:1,2017-03-04T09:45:00Z,26.0257,-81.7332,0.8,5.6,1111122 
NERRS,ioos:station:NOAA.NERRS:rkblhwq:1,2017-03-04T10:45:00Z,26.0257,-81.7332,0.9,5.6,1111122 
NERRS,ioos:station:NOAA.NERRS:rkblhwq:1,2017-03-04T11:45:00Z,26.0257,-81.7332,0.96,5.2,1111122 
NERRS,ioos:station:NOAA.NERRS:rkblhwq:1,2017-03-04T12:45:00Z,26.0257,-81.7332,0.94,5.7,1111122 
NERRS,ioos:station:NOAA.NERRS:rkblhwq:1,2017-03-04T13:45:00Z,26.0257,-81.7332,0.87,5.7,1111122 
NERRS,ioos:station:NOAA.NERRS:rkblhwq:1,2017-03-04T14:45:00Z,26.0257,-81.7332,0.78,5.9,1111122 
NERRS,ioos:station:NOAA.NERRS:rkblhwq:1,2017-03-04T15:45:00Z,26.0257,-81.7332,0.7,6.5,1111122 
NERRS,ioos:station:NOAA.NERRS:rkblhwq:1,2017-03-04T16:45:00Z,26.0257,-81.7332,0.64,6.8,1111122 
NERRS,ioos:station:NOAA.NERRS:rkblhwq:1,2017-03-04T17:45:00Z,26.0257,-81.7332,0.66,7.0,1111122 
NERRS,ioos:station:NOAA.NERRS:rkblhwq:1,2017-03-04T18:45:00Z,26.0257,-81.7332,0.76,7.0,1111122 
NERRS,ioos:station:NOAA.NERRS:rkblhwq:1,2017-03-04T19:45:00Z,26.0257,-81.7332,0.87,6.9,1111122 
NERRS,ioos:station:NOAA.NERRS:rkblhwq:1,2017-03-04T20:45:00Z,26.0257,-81.7332,0.99,6.9,1111122 
NERRS,ioos:station:NOAA.NERRS:rkblhwq:1,2017-03-04T21:45:00Z,26.0257,-81.7332,1.12,6.9,1111122 
NERRS,ioos:station:NOAA.NERRS:rkblhwq:1,2017-03-04T22:45:00Z,26.0257,-81.7332,1.22,6.3,1111122 
NERRS,ioos:station:NOAA.NERRS:rkblhwq:1,2017-03-04T23:45:00Z,26.0257,-81.7332,1.18,6.9,1111122 
NERRS,ioos:station:NOAA.NERRS:rkblhwq:1,2017-03-05T00:45:00Z,26.0257,-81.7332,1.09,6.8,1111122 
NERRS,ioos:station:NOAA.NERRS:rkblhwq:1,2017-03-05T01:45:00Z,26.0257,-81.7332,0.98,6.8,1111122 
NERRS,ioos:station:NOAA.NERRS:rkblhwq:1,2017-03-05T02:45:00Z,26.0257,-81.7332,0.87,6.5,1111122 
NERRS,ioos:station:NOAA.NERRS:rkblhwq:1,2017-03-05T03:45:00Z,26.0257,-81.7332,0.75,6.4,1111122 
NERRS,ioos:station:NOAA.NERRS:rkblhwq:1,2017-03-05T04:45:00Z,26.0257,-81.7332,0.64,6.2,1111122 
NERRS,ioos:station:NOAA.NERRS:rkblhwq:1,2017-03-05T05:45:00Z,26.0257,-81.7332,0.55,6.0,1111122 
NERRS,ioos:station:NOAA.NERRS:rkblhwq:1,2017-03-05T06:45:00Z,26.0257,-81.7332,0.48,5.6,1111122 
NERRS,ioos:station:NOAA.NERRS:rkblhwq:1,2017-03-05T07:45:00Z,26.0257,-81.7332,0.53,6.1,1111122 
NERRS,ioos:station:NOAA.NERRS:rkblhwq:1,2017-03-05T08:45:00Z,26.0257,-81.7332,0.65,5.7,1111122 
NERRS,ioos:station:NOAA.NERRS:rkblhwq:1,2017-03-05T09:45:00Z,26.0257,-81.7332,0.78,5.8,1111122 
NERRS,ioos:station:NOAA.NERRS:rkblhwq:1,2017-03-05T10:45:00Z,26.0257,-81.7332,0.91,5.8,1111122 
NERRS,ioos:station:NOAA.NERRS:rkblhwq:1,2017-03-05T11:45:00Z,26.0257,-81.7332,1.03,5.6,1111122 
NERRS,ioos:station:NOAA.NERRS:rkblhwq:1,2017-03-05T12:45:00Z,26.0257,-81.7332,1.11,5.0,1111122 
NERRS,ioos:station:NOAA.NERRS:rkblhwq:1,2017-03-05T13:45:00Z,26.0257,-81.7332,1.11,5.6,1111122 
NERRS,ioos:station:NOAA.NERRS:rkblhwq:1,2017-03-05T14:45:00Z,26.0257,-81.7332,1.02,6.2,1111122 
NERRS,ioos:station:NOAA.NERRS:rkblhwq:1,2017-03-05T15:45:00Z,26.0257,-81.7332,0.92,6.4,1111122 
NERRS,ioos:station:NOAA.NERRS:rkblhwq:1,2017-03-05T16:45:00Z,26.0257,-81.7332,0.85,6.7,1111122 
NERRS,ioos:station:NOAA.NERRS:rkblhwq:1,2017-03-05T17:45:00Z,26.0257,-81.7332,0.86,6.6,1111122 
NERRS,ioos:station:NOAA.NERRS:rkblhwq:1,2017-03-05T18:45:00Z,26.0257,-81.7332,0.9,7.0,1111122 
NERRS,ioos:station:NOAA.NERRS:rkblhwq:1,2017-03-05T19:45:00Z,26.0257,-81.7332,0.94,6.6,1111122 
NERRS,ioos:station:NOAA.NERRS:rkblhwq:1,2017-03-05T20:45:00Z,26.0257,-81.7332,1.01,6.5,1111122 
NERRS,ioos:station:NOAA.NERRS:rkblhwq:1,2017-03-05T21:45:00Z,26.0257,-81.7332,1.09,6.7,1111122 
NERRS,ioos:station:NOAA.NERRS:rkblhwq:1,2017-03-05T22:45:00Z,26.0257,-81.7332,1.17,6.5,1111122 
NERRS,ioos:station:NOAA.NERRS:rkblhwq:1,2017-03-05T23:45:00Z,26.0257,-81.7332,1.22,6.0,1111122 
NERRS,ioos:station:NOAA.NERRS:rkblhwq:1,2017-03-06T00:45:00Z,26.0257,-81.7332,1.2,6.6,1111122 
NERRS,ioos:station:NOAA.NERRS:rkblhwq:1,2017-03-06T01:45:00Z,26.0257,-81.7332,1.14,6.5,1111122 
NERRS,ioos:station:NOAA.NERRS:rkblhwq:1,2017-03-06T02:45:00Z,26.0257,-81.7332,1.05,6.4,1111122 
NERRS,ioos:station:NOAA.NERRS:rkblhwq:1,2017-03-06T03:45:00Z,26.0257,-81.7332,0.94,6.6,1111122 
NERRS,ioos:station:NOAA.NERRS:rkblhwq:1,2017-03-06T04:45:00Z,26.0257,-81.7332,0.81,6.4,1111122 
NERRS,ioos:station:NOAA.NERRS:rkblhwq:1,2017-03-06T05:45:00Z,26.0257,-81.7332,0.7,6.3,1111122 
NERRS,ioos:station:NOAA.NERRS:rkblhwq:1,2017-03-06T06:45:00Z,26.0257,-81.7332,0.6,6.0,1111122 
NERRS,ioos:station:NOAA.NERRS:rkblhwq:1,2017-03-06T07:45:00Z,26.0257,-81.7332,0.51,5.9,1111122 
NERRS,ioos:station:NOAA.NERRS:rkblhwq:1,2017-03-06T08:45:00Z,26.0257,-81.7332,0.56,6.2,1111122 
NERRS,ioos:station:NOAA.NERRS:rkblhwq:1,2017-03-06T09:45:00Z,26.0257,-81.7332,0.67,5.6,1111122 
NERRS,ioos:station:NOAA.NERRS:rkblhwq:1,2017-03-06T10:45:00Z,26.0257,-81.7332,0.78,5.9,1111122 
NERRS,ioos:station:NOAA.NERRS:rkblhwq:1,2017-03-06T11:45:00Z,26.0257,-81.7332,0.89,6.0,1111122 
NERRS,ioos:station:NOAA.NERRS:rkblhwq:1,2017-03-06T12:45:00Z,26.0257,-81.7332,1.0,5.7,1111122 
NERRS,ioos:station:NOAA.NERRS:rkblhwq:1,2017-03-06T13:45:00Z,26.0257,-81.7332,1.09,5.0,1111122 
NERRS,ioos:station:NOAA.NERRS:rkblhwq:1,2017-03-06T14:45:00Z,26.0257,-81.7332,1.12,5.8,1111122 
NERRS,ioos:station:NOAA.NERRS:rkblhwq:1,2017-03-06T15:45:00Z,26.0257,-81.7332,1.05,6.6,1111122 
NERRS,ioos:station:NOAA.NERRS:rkblhwq:1,2017-03-06T16:45:00Z,26.0257,-81.7332,0.98,6.8,1111122 
NERRS,ioos:station:NOAA.NERRS:rkblhwq:1,2017-03-06T17:45:00Z,26.0257,-81.7332,0.96,6.8,1111122 
NERRS,ioos:station:NOAA.NERRS:rkblhwq:1,2017-03-06T18:45:00Z,26.0257,-81.7332,0.94,6.7,1111122 
NERRS,ioos:station:NOAA.NERRS:rkblhwq:1,2017-03-06T19:45:00Z,26.0257,-81.7332,0.96,7.2,1111122 
NERRS,ioos:station:NOAA.NERRS:rkblhwq:1,2017-03-06T20:45:00Z,26.0257,-81.7332,1.05,7.3,1111122 
NERRS,ioos:station:NOAA.NERRS:rkblhwq:1,2017-03-06T21:45:00Z,26.0257,-81.7332,1.16,7.1,1111122 
NERRS,ioos:station:NOAA.NERRS:rkblhwq:1,2017-03-06T22:45:00Z,26.0257,-81.7332,1.24,6.7,1111122 
NERRS,ioos:station:NOAA.NERRS:rkblhwq:1,2017-03-06T23:45:00Z,26.0257,-81.7332,1.33,6.1,1111122 
NERRS,ioos:station:NOAA.NERRS:rkblhwq:1,2017-03-07T00:45:00Z,26.0257,-81.7332,1.38,5.8,1111122 
NERRS,ioos:station:NOAA.NERRS:rkblhwq:1,2017-03-07T01:45:00Z,26.0257,-81.7332,1.37,6.7,1111122 
NERRS,ioos:station:NOAA.NERRS:rkblhwq:1,2017-03-07T02:45:00Z,26.0257,-81.7332,1.27,7.0,1111122 
NERRS,ioos:station:NOAA.NERRS:rkblhwq:1,2017-03-07T03:45:00Z,26.0257,-81.7332,1.14,6.8,1111122 
NERRS,ioos:station:NOAA.NERRS:rkblhwq:1,2017-03-07T04:45:00Z,26.0257,-81.7332,1.01,6.6,1111122 
NERRS,ioos:station:NOAA.NERRS:rkblhwq:1,2017-03-07T05:45:00Z,26.0257,-81.7332,0.88,6.6,1111122 
NERRS,ioos:station:NOAA.NERRS:rkblhwq:1,2017-03-07T06:45:00Z,26.0257,-81.7332,0.76,6.4,1111122 
NERRS,ioos:station:NOAA.NERRS:rkblhwq:1,2017-03-07T07:45:00Z,26.0257,-81.7332,0.66,6.2,1111122 
NERRS,ioos:station:NOAA.NERRS:rkblhwq:1,2017-03-07T08:45:00Z,26.0257,-81.7332,0.59,5.9,1111122 
NERRS,ioos:station:NOAA.NERRS:rkblhwq:1,2017-03-07T09:45:00Z,26.0257,-81.7332,0.64,6.1,1111122 
NERRS,ioos:station:NOAA.NERRS:rkblhwq:1,2017-03-07T10:45:00Z,26.0257,-81.7332,0.74,5.9,1111122 
NERRS,ioos:station:NOAA.NERRS:rkblhwq:1,2017-03-07T11:45:00Z,26.0257,-81.7332,0.87,5.9,1111122 
NERRS,ioos:station:NOAA.NERRS:rkblhwq:1,2017-03-07T12:45:00Z,26.0257,-81.7332,1.01,5.9,1111122 
NERRS,ioos:station:NOAA.NERRS:rkblhwq:1,2017-03-07T13:45:00Z,26.0257,-81.7332,1.14,5.9,1111122 
NERRS,ioos:station:NOAA.NERRS:rkblhwq:1,2017-03-07T14:45:00Z,26.0257,-81.7332,1.24,5.7,1111122 
NERRS,ioos:station:NOAA.NERRS:rkblhwq:1,2017-03-07T15:45:00Z,26.0257,-81.7332,1.26,6.2,1111122 
NERRS,ioos:station:NOAA.NERRS:rkblhwq:1,2017-03-07T16:45:00Z,26.0257,-81.7332,1.17,6.5,1111122 
NERRS,ioos:station:NOAA.NERRS:rkblhwq:1,2017-03-07T17:45:00Z,26.0257,-81.7332,1.09,6.5,1111122 
NERRS,ioos:station:NOAA.NERRS:rkblhwq:1,2017-03-07T18:45:00Z,26.0257,-81.7332,1.05,6.5,1111122 
NERRS,ioos:station:NOAA.NERRS:rkblhwq:1,2017-03-07T19:45:00Z,26.0257,-81.7332,1.06,6.2,1111122 
NERRS,ioos:station:NOAA.NERRS:rkblhwq:1,2017-03-07T20:45:00Z,26.0257,-81.7332,1.08,6.1,1111122 
NERRS,ioos:station:NOAA.NERRS:rkblhwq:1,2017-03-07T21:45:00Z,26.0257,-81.7332,1.14,6.8,1111122 
NERRS,ioos:station:NOAA.NERRS:rkblhwq:1,2017-03-07T23:45:00Z,26.0257,-81.7332,1.24,6.8,1111122 
NERRS,ioos:station:NOAA.NERRS:rkblhwq:1,2017-03-08T00:45:00Z,26.0257,-81.7332,1.33,6.5,1111122 
NERRS,ioos:station:NOAA.NERRS:rkblhwq:1,2017-03-08T01:45:00Z,26.0257,-81.7332,1.42,6.5,1111122 
NERRS,ioos:station:NOAA.NERRS:rkblhwq:1,2017-03-08T02:45:00Z,26.0257,-81.7332,1.44,6.2,1111122 
NERRS,ioos:station:NOAA.NERRS:rkblhwq:1,2017-03-08T03:45:00Z,26.0257,-81.7332,1.37,6.6,1111122 
NERRS,ioos:station:NOAA.NERRS:rkblhwq:1,2017-03-08T04:45:00Z,26.0257,-81.7332,1.25,6.3,1111122 
NERRS,ioos:station:NOAA.NERRS:rkblhwq:1,2017-03-08T05:45:00Z,26.0257,-81.7332,1.11,6.4,1111122 
NERRS,ioos:station:NOAA.NERRS:rkblhwq:1,2017-03-08T06:45:00Z,26.0257,-81.7332,0.97,6.2,1111122 
NERRS,ioos:station:NOAA.NERRS:rkblhwq:1,2017-03-08T07:45:00Z,26.0257,-81.7332,0.82,6.1,1111122 
NERRS,ioos:station:NOAA.NERRS:rkblhwq:1,2017-03-08T08:45:00Z,26.0257,-81.7332,0.7,5.8,1111122 
NERRS,ioos:station:NOAA.NERRS:rkblhwq:1,2017-03-08T09:45:00Z,26.0257,-81.7332,0.6,5.6,1111122 
NERRS,ioos:station:NOAA.NERRS:rkblhwq:1,2017-03-08T10:45:00Z,26.0257,-81.7332,0.61,5.7,1111122 
NERRS,ioos:station:NOAA.NERRS:rkblhwq:1,2017-03-08T11:45:00Z,26.0257,-81.7332,0.71,5.3,1111122 
NERRS,ioos:station:NOAA.NERRS:rkblhwq:1,2017-03-08T12:45:00Z,26.0257,-81.7332,0.83,5.5,1111122 
NERRS,ioos:station:NOAA.NERRS:rkblhwq:1,2017-03-08T13:45:00Z,26.0257,-81.7332,0.97,5.8,1111122 
NERRS,ioos:station:NOAA.NERRS:rkblhwq:1,2017-03-08T14:45:00Z,26.0257,-81.7332,1.11,5.8,1111122 
NERRS,ioos:station:NOAA.NERRS:rkblhwq:1,2017-03-08T15:45:00Z,26.0257,-81.7332,1.21,5.8,1111122 
NERRS,ioos:station:NOAA.NERRS:rkblhwq:1,2017-03-08T16:45:00Z,26.0257,-81.7332,1.25,5.7,1111122 
NERRS,ioos:station:NOAA.NERRS:rkblhwq:1,2017-03-08T17:45:00Z,26.0257,-81.7332,1.19,6.2,1111122 
NERRS,ioos:station:NOAA.NERRS:rkblhwq:1,2017-03-08T18:45:00Z,26.0257,-81.7332,1.11,6.3,1111122 
NERRS,ioos:station:NOAA.NERRS:rkblhwq:1,2017-03-08T20:45:00Z,26.0257,-81.7332,0.98,6.7,1111122 
NERRS,ioos:station:NOAA.NERRS:rkblhwq:1,2017-03-08T21:45:00Z,26.0257,-81.7332,0.96,5.6,1111122 
NERRS,ioos:station:NOAA.NERRS:rkblhwq:1,2017-03-08T22:45:00Z,26.0257,-81.7332,0.99,6.2,1111122 
NERRS,ioos:station:NOAA.NERRS:rkblhwq:1,2017-03-08T23:45:00Z,26.0257,-81.7332,1.06,6.3,1111122 
NERRS,ioos:station:NOAA.NERRS:rkblhwq:1,2017-03-09T00:45:00Z,26.0257,-81.7332,1.16,6.3,1111122 
NERRS,ioos:station:NOAA.NERRS:rkblhwq:1,2017-03-09T01:45:00Z,26.0257,-81.7332,1.28,5.7,1111122 
NERRS,ioos:station:NOAA.NERRS:rkblhwq:1,2017-03-09T02:45:00Z,26.0257,-81.7332,1.39,6.1,1111122 
NERRS,ioos:station:NOAA.NERRS:rkblhwq:1,2017-03-09T03:45:00Z,26.0257,-81.7332,1.46,5.2,1111122 
NERRS,ioos:station:NOAA.NERRS:rkblhwq:1,2017-03-09T04:45:00Z,26.0257,-81.7332,1.41,6.1,1111122 
NERRS,ioos:station:NOAA.NERRS:rkblhwq:1,2017-03-09T05:45:00Z,26.0257,-81.7332,1.29,6.1,1111122 
NERRS,ioos:station:NOAA.NERRS:rkblhwq:1,2017-03-09T06:45:00Z,26.0257,-81.7332,1.14,6.0,1111122 
NERRS,ioos:station:NOAA.NERRS:rkblhwq:1,2017-03-09T07:45:00Z,26.0257,-81.7332,0.98,5.7,1111122 
NERRS,ioos:station:NOAA.NERRS:rkblhwq:1,2017-03-09T08:45:00Z,26.0257,-81.7332,0.83,5.7,1111122 
NERRS,ioos:station:NOAA.NERRS:rkblhwq:1,2017-03-09T09:45:00Z,26.0257,-81.7332,0.7,5.3,1111122 
NERRS,ioos:station:NOAA.NERRS:rkblhwq:1,2017-03-09T10:45:00Z,26.0257,-81.7332,0.6,5.1,1111122 
NERRS,ioos:station:NOAA.NERRS:rkblhwq:1,2017-03-09T11:45:00Z,26.0257,-81.7332,0.57,4.1,1111122 
NERRS,ioos:station:NOAA.NERRS:rkblhwq:1,2017-03-09T12:45:00Z,26.0257,-81.7332,0.68,5.1,1111122 
NERRS,ioos:station:NOAA.NERRS:rkblhwq:1,2017-03-09T13:45:00Z,26.0257,-81.7332,0.81,5.5,1111122 
NERRS,ioos:station:NOAA.NERRS:rkblhwq:1,2017-03-09T14:45:00Z,26.0257,-81.7332,0.94,5.9,1111122 
NERRS,ioos:station:NOAA.NERRS:rkblhwq:1,2017-03-09T15:45:00Z,26.0257,-81.7332,1.09,6.1,1111122 
NERRS,ioos:station:NOAA.NERRS:rkblhwq:1,2017-03-09T16:45:00Z,26.0257,-81.7332,1.22,6.3,1111122 
NERRS,ioos:station:NOAA.NERRS:rkblhwq:1,2017-03-09T17:45:00Z,26.0257,-81.7332,1.27,6.2,1111122 
NERRS,ioos:station:NOAA.NERRS:rkblhwq:1,2017-03-09T18:45:00Z,26.0257,-81.7332,1.18,6.5,1111122 
NERRS,ioos:station:NOAA.NERRS:rkblhwq:1,2017-03-09T19:45:00Z,26.0257,-81.7332,1.06,6.6,1111122 
NERRS,ioos:station:NOAA.NERRS:rkblhwq:1,2017-03-09T20:45:00Z,26.0257,-81.7332,0.94,6.8,1111122 
NERRS,ioos:station:NOAA.NERRS:rkblhwq:1,2017-03-09T21:45:00Z,26.0257,-81.7332,0.85,6.8,1111122 
NERRS,ioos:station:NOAA.NERRS:rkblhwq:1,2017-03-09T22:45:00Z,26.0257,-81.7332,0.8,6.7,1111122 
NERRS,ioos:station:NOAA.NERRS:rkblhwq:1,2017-03-09T23:45:00Z,26.0257,-81.7332,0.85,6.6,1111122 
NERRS,ioos:station:NOAA.NERRS:rkblhwq:1,2017-03-10T00:45:00Z,26.0257,-81.7332,0.95,6.5,1111122 
NERRS,ioos:station:NOAA.NERRS:rkblhwq:1,2017-03-10T01:45:00Z,26.0257,-81.7332,1.09,6.5,1111122 
NERRS,ioos:station:NOAA.NERRS:rkblhwq:1,2017-03-10T02:45:00Z,26.0257,-81.7332,1.24,6.4,1111122 
NERRS,ioos:station:NOAA.NERRS:rkblhwq:1,2017-03-10T04:45:00Z,26.0257,-81.7332,1.43,6.4,1111122 
NERRS,ioos:station:NOAA.NERRS:rkblhwq:1,2017-03-10T06:45:00Z,26.0257,-81.7332,1.27,6.0,1111122 
NERRS,ioos:station:NOAA.NERRS:rkblhwq:1,2017-03-10T07:45:00Z,26.0257,-81.7332,1.11,5.5,1111122 
NERRS,ioos:station:NOAA.NERRS:rkblhwq:1,2017-03-10T08:45:00Z,26.0257,-81.7332,0.95,5.3,1111122 
NERRS,ioos:station:NOAA.NERRS:rkblhwq:1,2017-03-10T09:45:00Z,26.0257,-81.7332,0.8,5.3,1111122 
NERRS,ioos:station:NOAA.NERRS:rkblhwq:1,2017-03-10T10:45:00Z,26.0257,-81.7332,0.67,5.0,1111122 
NERRS,ioos:station:NOAA.NERRS:rkblhwq:1,2017-03-10T11:45:00Z,26.0257,-81.7332,0.58,4.8,1111122 
NERRS,ioos:station:NOAA.NERRS:rkblhwq:1,2017-03-10T12:45:00Z,26.0257,-81.7332,0.62,5.1,1111122 
NERRS,ioos:station:NOAA.NERRS:rkblhwq:1,2017-03-10T13:45:00Z,26.0257,-81.7332,0.75,5.2,1111122 
NERRS,ioos:station:NOAA.NERRS:rkblhwq:1,2017-03-10T14:45:00Z,26.0257,-81.7332,0.91,5.7,1111122 
NERRS,ioos:station:NOAA.NERRS:rkblhwq:1,2017-03-10T15:45:00Z,26.0257,-81.7332,1.08,5.9,1111122 
NERRS,ioos:station:NOAA.NERRS:rkblhwq:1,2017-03-10T16:45:00Z,26.0257,-81.7332,1.24,6.0,1111122 
NERRS,ioos:station:NOAA.NERRS:rkblhwq:1,2017-03-10T17:45:00Z,26.0257,-81.7332,1.33,6.2,1111122 
NERRS,ioos:station:NOAA.NERRS:rkblhwq:1,2017-03-10T18:45:00Z,26.0257,-81.7332,1.28,6.5,1111122 
NERRS,ioos:station:NOAA.NERRS:rkblhwq:1,2017-03-10T19:45:00Z,26.0257,-81.7332,1.15,6.6,1111122 
NERRS,ioos:station:NOAA.NERRS:rkblhwq:1,2017-03-10T20:45:00Z,26.0257,-81.7332,1.03,6.7,1111122 
NERRS,ioos:station:NOAA.NERRS:rkblhwq:1,2017-03-10T21:45:00Z,26.0257,-81.7332,0.91,6.7,1111122 
NERRS,ioos:station:NOAA.NERRS:rkblhwq:1,2017-03-10T22:45:00Z,26.0257,-81.7332,0.81,6.4,1111122 
NERRS,ioos:station:NOAA.NERRS:rkblhwq:1,2017-03-10T23:45:00Z,26.0257,-81.7332,0.75,6.2,1111122 
NERRS,ioos:station:NOAA.NERRS:rkblhwq:1,2017-03-11T00:45:00Z,26.0257,-81.7332,0.76,6.1,1111122 
NERRS,ioos:station:NOAA.NERRS:rkblhwq:1,2017-03-11T01:45:00Z,26.0257,-81.7332,0.89,6.1,1111122 
NERRS,ioos:station:NOAA.NERRS:rkblhwq:1,2017-03-11T03:45:00Z,26.0257,-81.7332,1.23,6.1,1111122 
NERRS,ioos:station:NOAA.NERRS:rkblhwq:1,2017-03-11T04:45:00Z,26.0257,-81.7332,1.38,6.1,1111122 
NERRS,ioos:station:NOAA.NERRS:rkblhwq:1,2017-03-11T05:45:00Z,26.0257,-81.7332,1.44,5.6,1111122 
NERRS,ioos:station:NOAA.NERRS:rkblhwq:1,2017-03-11T06:45:00Z,26.0257,-81.7332,1.36,5.9,1111122 
NERRS,ioos:station:NOAA.NERRS:rkblhwq:1,2017-03-11T07:45:00Z,26.0257,-81.7332,1.22,5.4,1111122 
NERRS,ioos:station:NOAA.NERRS:rkblhwq:1,2017-03-11T08:45:00Z,26.0257,-81.7332,1.06,5.5,1111122 
NERRS,ioos:station:NOAA.NERRS:rkblhwq:1,2017-03-11T09:45:00Z,26.0257,-81.7332,0.9,5.2,1111122 
NERRS,ioos:station:NOAA.NERRS:rkblhwq:1,2017-03-11T10:45:00Z,26.0257,-81.7332,0.75,4.9,1111122 
NERRS,ioos:station:NOAA.NERRS:rkblhwq:1,2017-03-11T11:45:00Z,26.0257,-81.7332,0.63,4.8,1111122 
NERRS,ioos:station:NOAA.NERRS:rkblhwq:1,2017-03-11T12:45:00Z,26.0257,-81.7332,0.55,4.6,1111122 
NERRS,ioos:station:NOAA.NERRS:rkblhwq:1,2017-03-11T13:45:00Z,26.0257,-81.7332,0.61,5.1,1111122 
NERRS,ioos:station:NOAA.NERRS:rkblhwq:1,2017-03-11T14:45:00Z,26.0257,-81.7332,0.73,5.6,1111122 
NERRS,ioos:station:NOAA.NERRS:rkblhwq:1,2017-03-11T15:45:00Z,26.0257,-81.7332,0.88,6.0,1111122 